Location: Hurstbourne Priors
(51.2000°N, 1.3667°W)
Time: 20:31:10
(UTC+00:00)

Transit 4A - Pass Details

Date: 19 April 2021
Orbit: 870 x 974 km, 66.8° (Epoch: 09 May)

Event Time Altitude Azimuth Distance (km) Brightness Sun altitude
Rises 07:55:15 0° 322° (NW) 3,534 10.5 26.0°
Reaches altitude 10° 07:57:47 10° 323° (NW) 2,576 9.9 26.4°
Maximum altitude 08:03:45 85° 51° (NE) 891 8.4 27.3°
Drops below altitude 10° 08:09:35 10° 142° (SE) 2,517 11.2 28.1°
Sets 08:12:02 0° 143° (SE) 3,448 11.7 28.5°
